Date String (YYYY-MM-DD hh:mm:ss) UTC,Instrument flags,Ambient pressure (hPa),Sample flow (lpm),Bypass flow (lpm),Sample temperature (°C),Ambient temperature (°C),ASC tube jacket temperature (°C),LED temperature (°C),Box temperature (°C),Sample RH (%),Span deviation,Mass concentration (μg/m³),Mass concentration (μg/m³),Mass concentration (μg/m³)
DateTimeUTC,F1_M11,P_M11,Q1_M11,Q2_M11,T1_M11,T2_M11,T3_M11,T4_M11,T5_M11,U1_M11,ZSPAN_M11,X2_M11,X0_M11,X1_M11
2022-03-22 09:00:00,,0826.7,5.01,0.00,21.8,21.1,00.0,30.9,23.4,10.6,0000.0,0002.44,0005.63,0001.79
2022-03-22 09:01:00,,0826.7,4.99,0.00,21.8,21.0,00.0,30.9,23.4,10.7,0000.0,0002.44,0005.68,0001.81
2022-03-22 09:02:00,,0826.7,4.99,0.00,21.7,21.0,00.0,30.9,23.4,10.7,0000.0,0002.44,0005.65,0001.81
2022-03-22 09:03:00,,0826.7,5.00,0.00,21.7,20.9,00.0,30.9,23.3,10.7,0000.0,0002.47,0005.69,0001.81
2022-03-22 09:04:00,,0826.7,5.00,0.00,21.7,20.8,00.0,30.8,23.3,10.7,0000.0,0002.49,0005.95,0001.81
2022-03-22 09:05:00,,0826.7,5.00,0.00,21.6,20.8,00.0,30.8,23.2,10.7,0000.0,0002.49,0004.94,0001.81
2022-03-22 09:06:00,,0826.7,4.99,0.00,21.6,20.7,00.0,30.8,23.2,10.8,0000.0,0002.50,0004.92,0001.82
2022-03-22 09:07:00,,0826.7,5.00,0.00,21.6,20.7,00.0,30.8,23.2,10.8,0000.0,0002.57,0005.11,0001.84
2022-03-22 09:08:00,,0826.7,5.00,0.00,21.6,20.7,00.0,30.8,23.2,10.8,0000.0,0002.58,0005.11,0001.84
2022-03-22 09:09:00,,0826.7,5.00,0.00,21.6,20.7,00.0,30.7,23.3,10.8,0000.0,0002.62,0004.64,0001.85
2022-03-22 09:10:00,,0826.7,5.01,0.00,21.6,20.9,00.0,30.7,23.3,10.8,0000.0,0002.65,0004.64,0001.88
2022-03-22 09:11:00,,0826.7,4.99,0.00,21.7,21.6,00.0,30.8,23.5,10.8,0000.0,0002.68,0004.78,0001.89
2022-03-22 09:12:00,,0826.7,5.00,0.00,21.8,22.6,00.0,30.8,23.7,10.7,0000.0,0002.71,0004.88,0001.91
2022-03-22 09:13:00,,0826.7,5.01,0.00,22.0,22.9,00.0,30.8,23.9,10.7,0000.0,0002.70,0004.86,0001.92
2022-03-22 09:14:00,,0826.7,4.98,0.00,22.0,22.5,00.0,30.8,23.8,10.6,0000.0,0002.72,0005.01,0001.95
2022-03-22 09:15:00,,0826.8,5.00,0.00,21.9,22.2,00.0,30.8,23.7,10.7,0000.0,0002.71,0005.47,0001.97
2022-03-22 09:16:00,,0826.8,5.00,0.00,21.9,21.9,00.0,30.8,23.6,10.7,0000.0,0002.76,0006.25,0001.99
2022-03-22 09:17:00,,0826.8,5.00,0.00,21.9,21.6,00.0,30.9,23.5,10.7,0000.0,0002.73,0006.24,0002.00
2022-03-22 09:18:00,,0826.8,5.00,0.00,21.8,21.4,00.0,30.8,23.5,10.7,0000.0,0002.70,0006.19,0002.00
2022-03-22 09:19:00,,0826.8,5.00,0.00,21.8,21.2,00.0,30.8,23.4,10.8,0000.0,0002.70,0006.18,0002.01
2022-03-22 09:20:00,,0826.8,5.00,0.00,21.7,21.1,00.0,30.8,23.4,10.8,0000.0,0002.73,0006.18,0002.02
2022-03-22 09:21:00,,0826.8,4.99,0.00,21.7,21.0,00.0,30.8,23.3,10.8,0000.0,0002.75,0006.61,0002.02
2022-03-22 09:22:00,,0826.8,5.00,0.00,21.7,20.9,00.0,30.8,23.2,10.8,0000.0,0002.81,0007.02,0002.03
2022-03-22 09:23:00,,0826.8,5.00,0.00,21.6,20.8,00.0,30.8,23.1,10.9,0000.0,0002.81,0006.94,0002.05
2022-03-22 09:24:00,,0826.8,5.01,0.00,21.6,20.7,00.0,30.7,23.1,11.0,0000.0,0002.86,0007.26,0002.06
2022-03-22 09:25:00,,0826.8,5.00,0.00,21.5,20.6,00.0,30.7,23.1,10.9,0000.0,0002.94,0007.39,0002.09
2022-03-22 09:26:00,,0826.9,4.99,0.00,21.5,20.6,00.0,30.7,23.0,11.0,0000.0,0002.97,0006.91,0002.12
2022-03-22 09:27:00,,0827.0,5.02,0.00,21.4,20.5,00.0,30.7,23.0,11.0,0000.0,0003.03,0006.41,0002.17
2022-03-22 09:28:00,,0826.9,4.98,0.00,21.5,20.9,00.0,30.7,23.1,11.0,0000.0,0003.11,0006.51,0002.23
2022-03-22 09:29:00,,0826.9,5.01,0.00,21.6,21.9,00.0,30.7,23.4,11.0,0000.0,0003.16,0006.75,0002.32
2022-03-22 09:30:00,,0826.9,4.98,0.00,21.7,22.7,00.0,30.7,23.7,10.9,0000.0,0003.20,0006.73,0002.42
2022-03-22 09:31:00,,0826.9,5.00,0.00,21.8,22.6,00.0,30.8,23.8,10.8,0000.0,0003.25,0006.88,0002.53
2022-03-22 09:32:00,,0826.9,5.00,0.00,21.8,22.3,00.0,30.8,23.7,10.8,0000.0,0003.29,0006.58,0002.64
2022-03-22 09:33:00,,0826.9,5.00,0.00,21.8,22.0,00.0,30.8,23.6,10.8,0000.0,0003.32,0006.34,0002.73
2022-03-22 09:34:00,,0827.0,4.99,0.00,21.8,21.7,00.0,30.8,23.5,10.8,0000.0,0003.39,0006.50,0002.81
2022-03-22 09:35:00,,0827.0,5.01,0.00,21.8,21.5,00.0,30.8,23.4,10.8,0000.0,0003.39,0006.22,0002.89
2022-03-22 09:36:00,,0827.0,4.99,0.00,21.7,21.3,00.0,30.8,23.4,10.8,0000.0,0003.40,0006.05,0002.93
2022-03-22 09:37:00,,0827.0,5.01,0.00,21.7,21.2,00.0,30.8,23.4,10.7,0000.0,0003.43,0005.88,0002.96
2022-03-22 09:38:00,,0827.0,5.01,0.00,21.7,21.1,00.0,30.8,23.3,10.8,0000.0,0003.43,0006.06,0003.00
2022-03-22 09:39:00,,0827.0,5.00,0.00,21.7,21.0,00.0,30.7,23.3,10.8,0000.0,0003.45,0006.68,0003.03
2022-03-22 09:40:00,,0827.0,5.00,0.00,21.6,20.9,00.0,30.7,23.2,10.8,0000.0,0003.48,0006.65,0003.04
2022-03-22 09:41:00,,0827.0,5.00,0.00,21.6,20.8,00.0,30.7,23.2,10.8,0000.0,0003.53,0006.93,0003.04
2022-03-22 09:42:00,,0827.0,5.00,0.00,21.5,20.7,00.0,30.7,23.1,10.8,0000.0,0003.51,0006.98,0002.99
2022-03-22 09:43:00,,0827.1,5.00,0.00,21.5,20.7,00.0,30.7,23.1,10.9,0000.0,0003.52,0006.96,0002.98
2022-03-22 09:44:00,,0827.1,5.00,0.00,21.5,20.6,00.0,30.7,23.0,10.9,0000.0,0003.50,0006.83,0002.95
2022-03-22 09:45:00,,0827.1,4.99,0.00,21.5,20.9,00.0,30.7,23.1,10.9,0000.0,0003.45,0006.61,0002.95
2022-03-22 09:46:00,,0827.1,5.00,0.00,21.6,21.9,00.0,30.7,23.4,10.9,0000.0,0003.49,0006.76,0002.94
2022-03-22 09:47:00,,0827.1,4.99,0.00,21.8,22.9,00.0,30.7,23.8,10.8,0000.0,0003.47,0006.71,0002.94
2022-03-22 09:48:00,,0827.1,5.01,0.00,21.9,22.9,00.0,30.7,23.9,10.7,0000.0,0003.46,0006.61,0002.97
2022-03-22 09:49:00,,0827.1,5.01,0.00,22.0,22.7,00.0,30.8,23.9,10.7,0000.0,0003.48,0006.25,0002.97
2022-03-22 09:50:00,,0827.1,4.98,0.00,22.0,22.4,00.0,30.8,23.9,10.7,0000.0,0003.51,0005.73,0003.02
2022-03-22 09:51:00,,0827.1,5.00,0.00,22.0,22.2,00.0,30.8,23.9,10.7,0000.0,0003.51,0005.80,0003.06
2022-03-22 09:52:00,,0827.1,5.02,0.00,22.0,22.0,00.0,30.8,23.8,10.7,0000.0,0003.48,0005.56,0003.07
2022-03-22 09:53:00,,0827.3,4.99,0.00,22.0,21.9,00.0,30.9,23.8,10.6,0000.0,0003.49,0005.51,0003.12
2022-03-22 09:54:00,,0827.5,5.01,0.00,22.0,21.7,00.0,30.9,23.8,10.6,0000.0,0003.48,0005.34,0003.13
2022-03-22 09:55:00,,0827.3,5.01,0.00,22.0,21.7,00.0,30.9,23.8,10.5,0000.0,0003.51,0005.46,0003.15
2022-03-22 09:56:00,,0827.6,4.99,0.00,22.0,21.6,00.0,30.9,23.8,10.5,0000.0,0003.54,0005.53,0003.16
2022-03-22 09:57:00,,0827.5,5.00,0.00,22.0,21.5,00.0,30.9,23.8,10.5,0000.0,0003.52,0005.61,0003.17
2022-03-22 09:58:00,,0827.2,5.00,0.00,22.0,21.5,00.0,30.9,23.8,10.5,0000.0,0003.51,0005.53,0003.17
2022-03-22 09:59:00,,0827.2,4.99,0.00,22.1,21.5,00.0,30.9,23.8,10.5,0000.0,0003.51,0005.59,0003.17
